Weather History for Culdrose, United Kingdom

Change the Weather History Date:

Saturday, December 10, 2011

  Actual Average Record
Temperature  
Mean Temperature 41 °F -  
Max Temperature 48 °F 47 °F 55 °F (1997)
Min Temperature 35 °F 40 °F 32 °F (2002)
Degree Days  
Heating Degree Days 24    
Moisture  
Dew Point 38 °F    
Average Humidity 81    
Maximum Humidity 93    
Minimum Humidity 65    
Precipitation  
Precipitation 0.00 in - - ()
Sea Level Pressure  
Sea Level Pressure 30.03 in    
Wind  
Wind Speed 7 mph ()    
Max Wind Speed 15 mph    
Max Gust Speed 29 mph    
Visibility 8.2 miles    
Events Rain    
Averages and records for this station are not official NWS values.
T = Trace of Precipitation, MM = Missing Value Source: Averaged Metar Reports

Daily Weather History Graph

Daily Weather History Graph

Search for Another Location

Airport:

Trip Planner

Search our weather history database for the weather conditions in past years. The results will help you decide how hot, cold, wet, or windy it might be!

Date:

Astronomy

Dec. 10, 2011 Rise Set
Actual Time 8:08 AM GMT 4:18 PM GMT
Civil Twilight 7:30 AM GMT 4:57 PM GMT
Nautical Twilight 6:48 AM GMT 5:38 PM GMT
Astronomical Twilight 6:09 AM GMT 6:17 PM GMT
Moon 4:18 PM GMT (12/10) 7:58 AM GMT (12/10)
Length of Visible Light 9h 26m
Length of Day
8h 10m
Full, 100% of the Moon is Illuminated
Dec 10
Full
Dec 10
Full
Dec 18
Last Quarter
Dec 24
New
Jan 1
First Quarter

Hourly Weather History & Observations

Time (GMT) Temp. Windchill Dew Point Humidity Pressure Visibility Wind Dir Wind Speed Gust Speed Precip Events Conditions
12:50 AM 39.2 °F 35.0 °F 35.6 °F 87% 30.01 in 6.2 mi NNW 5.8 mph - N/A   Scattered Clouds
1:50 AM 39.2 °F 35.9 °F 35.6 °F 87% 30.01 in 6.2 mi NW 4.6 mph - N/A   Scattered Clouds
2:50 AM 35 °F - 33 °F 90% 30.05 in 12 mi NNW 5.8 mph - -   Partly Cloudy
2:50 AM 35.6 °F 30.7 °F 33.8 °F 93% 30.04 in 6.2 mi NNW 5.8 mph - N/A   Scattered Clouds
3:50 AM 39.2 °F 33.0 °F 35.6 °F 87% 30.01 in 6.2 mi NNW 9.2 mph - N/A   Partly Cloudy
4:50 AM 39.2 °F 35.0 °F 35.6 °F 87% 30.01 in 6.2 mi NW 5.8 mph - N/A   Partly Cloudy
5:50 AM 38 °F - 36 °F 89% 30.05 in 16 mi NNW 4.6 mph - -   Partly Cloudy
5:50 AM 37.4 °F 33.8 °F 35.6 °F 93% 30.04 in 6.2 mi NNW 4.6 mph - N/A   Partly Cloudy
6:50 AM 39.2 °F 34.2 °F 35.6 °F 87% 30.04 in 6.2 mi NW 6.9 mph - N/A   Partly Cloudy
7:50 AM 39.2 °F 33.0 °F 33.8 °F 81% 30.04 in 6.2 mi NNW 9.2 mph - N/A   Scattered Clouds
8:50 AM 38 °F - 33 °F 75% 30.07 in 16 mi NW 8.1 mph - -   Partly Cloudy
8:50 AM 39.2 °F 33.6 °F 33.8 °F 81% 30.04 in 6.2 mi NW 8.1 mph - N/A   Scattered Clouds
9:50 AM 42.8 °F 38.0 °F 37.4 °F 81% 30.06 in 6.2 mi West 8.1 mph - N/A   Scattered Clouds
10:50 AM 44.6 °F 38.8 °F 37.4 °F 76% 30.06 in 6.2 mi WNW 11.5 mph - N/A Rain Light Rain Showers
11:50 AM 47 °F - 39 °F 65% 30.07 in 16 mi West 6.9 mph - - Rain Light Rain Showers
11:50 AM 46.4 °F 42.9 °F 39.2 °F 76% 30.04 in 6.2 mi West 6.9 mph - N/A   Scattered Clouds
12:50 PM 48.2 °F - 41.0 °F 76% 30.04 in 6.2 mi West 10.4 mph - N/A Rain Light Rain Showers
1:50 PM 44.6 °F 38.4 °F 39.2 °F 81% 30.04 in 6.2 mi West 12.7 mph - N/A Rain Light Rain Showers
2:50 PM 46 °F - 39 °F 69% 30.04 in 16 mi WSW 5.8 mph - - Rain Light Rain Showers
2:50 PM 46.4 °F 43.5 °F 39.2 °F 76% 30.04 in 6.2 mi WSW 5.8 mph - N/A   Scattered Clouds
3:50 PM 42.8 °F 38.0 °F 39.2 °F 87% 30.04 in 6.2 mi WNW 8.1 mph - N/A   Scattered Clouds
5:50 PM 45 °F - 40 °F 76% 30.04 in 12 mi WNW 5.8 mph - -   Partly Cloudy
5:50 PM 44.6 °F 41.4 °F 39.2 °F 81% 30.01 in 6.2 mi WNW 5.8 mph - N/A   Mostly Cloudy
6:50 PM 46.4 °F 41.5 °F 39.2 °F 76% 30.01 in 6.2 mi WSW 10.4 mph - N/A   Mostly Cloudy
7:50 PM 46.4 °F 40.1 °F 41.0 °F 81% 30.01 in 6.2 mi WSW 15.0 mph - N/A Rain Light Rain Showers
8:50 PM 47 °F - 41 °F 71% 30.03 in 12 mi WSW 13.8 mph - - Rain Light Rain Showers
8:50 PM 46.4 °F 40.4 °F 41.0 °F 81% 30.01 in 6.2 mi WSW 13.8 mph - N/A   Mostly Cloudy
9:50 PM 46.4 °F 40.7 °F 39.2 °F 76% 29.98 in 6.2 mi WSW 12.7 mph - N/A   Mostly Cloudy
10:50 PM 46.4 °F 40.4 °F 41.0 °F 81% 29.98 in 6.2 mi WSW 13.8 mph - N/A   Mostly Cloudy
11:50 PM 47 °F - 41 °F 73% 29.99 in 12 mi WSW 15.0 mph - -   Partly Cloudy
11:50 PM 48.2 °F - 41.0 °F 76% 29.98 in 6.2 mi WSW 15.0 mph 28.8 mph N/A   Mostly Cloudy